Overview Statistics Trail Chart Weather Telemetry Raw packets
 

This is the latest recevied weather packets stored in our database for station/object KK7MLS-13. If no packets are shown the sender has not sent any weather packets the latest 10 day(s).

<< 31 32 33 34 35 36 37 >>
Time Temp. Humidity Pressure Rain* Wind** Luminosity Snow
1788468118 15.56° C 80% 1010.7 hPa 0 mm - 295 W/m² -
1788467813 15.56° C 79% 1010.6 hPa 0 mm - 127 W/m² -
1788467508 15.56° C 77% 1010.6 hPa 0 mm - 40 W/m² -
1788467202 15.56° C 77% 1010.4 hPa 0 mm - 129 W/m² -
1788466899 15.56° C 76% 1010.3 hPa 0 mm - 151 W/m² -
1788466598 16.11° C 76% 1010.4 hPa 0 mm - 124 W/m² -
1788466297 16.11° C 76% 1010.4 hPa 0 mm - 154 W/m² -
1788465993 16.11° C 74% 1010.2 hPa 0 mm - 200 W/m² -
1788465688 16.11° C 77% 1010.4 hPa 0 mm - 232 W/m² -
1788465384 16.11° C 76% 1010.4 hPa 0 mm - 236 W/m² -
1788465079 16.11° C 77% 1010.4 hPa 0 mm - 332 W/m² -
1788464774 16.67° C 73% 1010.4 hPa 0 mm - 282 W/m² -
1788464474 17.22° C 76% 1010.3 hPa 0 mm - 296 W/m² -
1788464170 16.67° C 79% 1010.4 hPa 0 mm - 547 W/m² -
1788463866 16.67° C 75% 1010.5 hPa 0 mm - 283 W/m² -
1788463563 17.22° C 77% 1010.5 hPa 0 mm - 264 W/m² -
1788463263 16.67° C 80% 1010.3 hPa 0 mm - 506 W/m² -
1788462959 16.11° C 80% 1010.4 hPa 0 mm - 512 W/m² -
1788462654 15.56° C 82% 1010.6 hPa 0 mm - 614 W/m² -
1788462353 16.11° C 83% 1010.5 hPa 0 mm - 255 W/m² -
1788462053 16.11° C 84% 1010.6 hPa 0 mm - 210 W/m² -
1788461748 15.56° C 84% 1010.6 hPa 0 mm - 383 W/m² -
1788461444 15.56° C 85% 1010.6 hPa 0 mm - 254 W/m² -
1788461140 15° C 88% 1010.8 hPa 0 mm - 585 W/m² -
1788460835 14.44° C 88% 1010.7 hPa 0 mm - 298 W/m² -

* Rain latest hour (hover to see other rain measurements)
** Current wind speed in m/s (hover to see current wind gust speed)